OPS 4988 DEB, 12099

Orbit data source: Space-Track

OPS 4988 DEB, 12099 is space debris in LEO originally from a launch on Tue, 09 Mar 1965 UTC launched from the Air Force Western Test Range (AFWTR). Debris objects in space refer to the collection of defunct objects orbiting the Earth. Examples of debris include non-operational satellites, rocket bodies, and fragments generated from explosions, collisions, or faulty payload assembly.

Loading next visibility...
Identifier
12099, 1965-016K
Orbit
LEO
Country
Flag of USUS
Related business
Manufacturer
Unknown
Mission
Spacecraft
Bus & Motor
Unknown
Mass
Unknown
Launch date (UTC)
1965-03-09 (61 years ago)
Launch vehicle
Unknown
Launch site
Air Force Western Test Range (AFWTR)
Object type
Payload
Rocket body
Debris
Shape & HBR
Unknown shape, 0.1 m
Radar Cross Section
Small (<0.1 m²)

Expand to show TLE details & history
Last TLE update: 21 hours ago

TLE from 21 hours ago
0 OPS 4988 DEB
1 12099U 65016K   26034.79347424  .00000302  00000-0  22113-3 0  9991
2 12099  70.0756 164.4534 0015304  83.9632 349.8980 14.04817231108291
Epoch: 2026-02-03T19:02Z
TLE epoch observation values (Epoch: 2026-02-03T19:02:36.174Z)
Latitude
64.65409°
Longitude
154.40438°
Altitude
876.775 km
Speed
7.426 km/s
True Right ascension
14h 16m 05s
True Declination
64° 31' 23"
Sunlit
Object was in daylight at epoch
Visualization orbit readout
Latitude
Unknown
Longitude
Unknown
Altitude
Unknown
Speed
Unknown
Apparent Right ascension
Unknown
Apparent Declination
Unknown
Sunlit
N/A
Visualization observer readout
Local Sidereal Time
17:34:10
Azimuth
Unknown
Elevation
Unknown
Doppler factor
Unknown
Orbital elements
Apogee altitude
886.289 km
Perigee altitude
864.088 km
Semi-major axis
7,253.326 km
Eccentricity
0.00153
Inclination
70.0756°
RAAN
164.4534°
Arg. of periapsis
83.9632°
True anomaly
349.86718°
Mean anomaly
349.898°
Eccentric anomaly
349.8826°
Mean motion
3.51348 °/min
Orbital period
102.46 mins
BSTAR
0.00022113
Loading maneuver chart data...
Computing Atmospheric mass density...
Loading historical data...
Loading historical data...
Loading historical data...
Loading historical data...
Loading historical data...
Loading historical data...
Loading historical data...

Documentation

Showing up to 5 results
|